STARLINK-6380, 57344

Orbit data source: Space-Track

STARLINK-6380, 57344 is a payload satellite owned by SpaceX/Seattle (US) in LEO that was launched on Sun, 16 Jul 2023 UTC via an FALCON 9 launch vehicle from the Air Force Eastern Test Range (AFETR). Payload-class satellites include a variety of spacecraft equipped with specific instruments for various scientific and technological missions. These include communications satellites like Starlink; space stations such as the ISS; scientific satellites like the Hubble; Earth observation satellites from companies like Planet Labs, Umbra, and HawkEye 360; GPS; miniature CubeSats for education and research; and military/defense satellites.

Loading next visibility...
Identifier
57344, 2023-099S
Orbit
LEO
Country
Flag of USUS
Related business
Manufacturer
SpaceX/Seattle
Mission
Operational Commercial Communications
Bus & Motor
STARLINK, Unknown motor
Mass
305 kg wet, ~290 kg dry
Launch date (UTC)
2023-07-16 (3 years ago)
Launch vehicle
FALCON 9
Launch site
Air Force Eastern Test Range (AFETR)
Object type
Payload
Rocket body
Debris
Shape & HBR
Box + 1 Pan, 10.1 m
Radar Cross Section
11.087 m², Large (>1 m²)

Expand to show TLE details & history
Last TLE update: 2 days ago

TLE from 2 days ago
0 STARLINK-6380
1 57344U 23099S   26171.30784205  .00000663  00000-0  33590-4 0  9991
2 57344  43.0013  32.5945 0000640 271.1981  88.8797 15.27578395161774
Epoch: 2026-06-20T07:23Z
TLE epoch observation values (Epoch: 2026-06-20T07:23:17.553Z)
Latitude
-0.00003°
Longitude
13.247°
Altitude
482.821 km
Speed
7.626 km/s
True Right ascension
02h 10m 22s
True Declination
0° 00' 00"
Sunlit
Object was in daylight at epoch
Visualization orbit readout
Latitude
Unknown
Longitude
Unknown
Altitude
Unknown
Speed
Unknown
Apparent Right ascension
Unknown
Apparent Declination
Unknown
Sunlit
N/A
Visualization observer readout
Local Sidereal Time
21:33:53
Azimuth
Unknown
Elevation
Unknown
Doppler factor
Unknown
Orbital elements
Apogee altitude
485.438 km
Perigee altitude
484.56 km
Semi-major axis
6,863.136 km
Eccentricity
0.00006
Inclination
43.0013°
RAAN
32.5945°
Arg. of periapsis
271.1981°
True anomaly
88.88703°
Mean anomaly
88.8797°
Eccentric anomaly
88.88337°
Mean motion
3.81733 °/min
Orbital period
94.31 mins
BSTAR
0.00003359
Loading maneuver chart data...
Computing Atmospheric mass density...
Loading historical data...
Loading historical data...
Loading historical data...
Loading historical data...
Loading historical data...
Loading historical data...
Loading historical data...

Documentation

Showing up to 5 results
|